TimeCDT,TemperatureF,Dew PointF,Humidity,Sea Level PressureIn,VisibilityMPH,Wind Direction,Wind SpeedMPH,Gust SpeedMPH,PrecipitationIn,Events,Conditions,WindDirDegrees,DateUTC
12:15 AM,64.4,60.8,88,29.65,10.0,South,5.8,-,N/A,,Mostly Cloudy,170,2012-10-14 05:15:00
12:35 AM,64.4,60.8,88,29.64,10.0,South,9.2,-,N/A,,Overcast,180,2012-10-14 05:35:00
12:55 AM,64.4,60.8,88,29.62,10.0,South,8.1,-,N/A,,Overcast,170,2012-10-14 05:55:00
1:15 AM,64.4,60.8,88,29.63,10.0,South,5.8,-,N/A,,Overcast,180,2012-10-14 06:15:00
1:35 AM,64.4,60.8,88,29.62,10.0,South,9.2,-,N/A,,Overcast,180,2012-10-14 06:35:00
1:55 AM,64.4,60.8,88,29.60,10.0,South,3.5,-,N/A,,Overcast,170,2012-10-14 06:55:00
2:15 AM,64.4,60.8,88,29.60,10.0,SSE,5.8,-,N/A,,Overcast,160,2012-10-14 07:15:00
2:35 AM,64.4,62.6,94,29.59,10.0,South,6.9,-,N/A,,Overcast,170,2012-10-14 07:35:00
2:55 AM,64.4,62.6,94,29.59,10.0,SSE,8.1,-,N/A,,Overcast,160,2012-10-14 07:55:00
3:15 AM,64.4,62.6,94,29.58,10.0,SSE,6.9,-,N/A,,Overcast,160,2012-10-14 08:15:00
3:35 AM,64.4,60.8,88,29.57,10.0,South,5.8,-,N/A,,Overcast,170,2012-10-14 08:35:00
3:55 AM,64.4,60.8,88,29.57,10.0,South,5.8,-,N/A,,Unknown,190,2012-10-14 08:55:00
4:35 AM,64.4,62.6,94,29.55,10.0,South,4.6,-,N/A,,Overcast,170,2012-10-14 09:35:00
4:55 AM,64.4,62.6,94,29.56,10.0,SW,4.6,-,N/A,,Overcast,220,2012-10-14 09:55:00
5:15 AM,64.4,62.6,94,29.55,10.0,South,4.6,-,N/A,Thunderstorm,Overcast,190,2012-10-14 10:15:00
5:35 AM,64.4,62.6,94,29.56,10.0,SSW,4.6,-,N/A,,Overcast,210,2012-10-14 10:35:00
5:55 AM,64.4,62.6,94,29.57,10.0,WSW,5.8,-,N/A,,Overcast,250,2012-10-14 10:55:00
6:15 AM,62.6,55.4,77,29.59,7.0,WNW,29.9,42.6,N/A,Rain-Thunderstorm,Heavy Thunderstorms and Rain,300,2012-10-14 11:15:00
6:35 AM,59.0,57.2,94,29.62,10.0,West,13.8,20.7,N/A,Rain-Thunderstorm,Light Thunderstorms and Rain,280,2012-10-14 11:35:00
6:55 AM,59.0,53.6,82,29.65,7.0,WNW,31.1,46.0,N/A,Rain,Rain,290,2012-10-14 11:55:00
7:15 AM,59.0,53.6,82,29.67,5.0,WNW,12.7,31.1,N/A,Rain,Light Rain,300,2012-10-14 12:15:00
7:35 AM,59.0,55.4,88,29.67,10.0,NNW,13.8,19.6,N/A,Rain,Rain,330,2012-10-14 12:35:00
7:55 AM,59.0,55.4,88,29.66,10.0,NNW,18.4,26.5,N/A,Rain,Light Rain,330,2012-10-14 12:55:00
8:15 AM,59.0,53.6,82,29.67,10.0,NW,15.0,20.7,N/A,,Unknown,320,2012-10-14 13:15:00
9:15 AM,59.0,53.6,82,29.70,10.0,WNW,16.1,21.9,N/A,,Scattered Clouds,300,2012-10-14 14:15:00
9:35 AM,59.0,51.8,77,29.72,10.0,NW,17.3,28.8,N/A,,Mostly Cloudy,310,2012-10-14 14:35:00
9:55 AM,59.0,53.6,82,29.74,10.0,WNW,21.9,31.1,N/A,,Overcast,290,2012-10-14 14:55:00
10:15 AM,59.0,53.6,82,29.76,10.0,WNW,18.4,26.5,N/A,,Overcast,290,2012-10-14 15:15:00
10:35 AM,59.0,53.6,82,29.77,10.0,WNW,17.3,33.4,N/A,,Overcast,290,2012-10-14 15:35:00
10:55 AM,60.8,53.6,77,29.79,10.0,West,18.4,25.3,N/A,,Overcast,280,2012-10-14 15:55:00
11:15 AM,59.0,51.8,77,29.81,10.0,WNW,17.3,27.6,N/A,,Overcast,300,2012-10-14 16:15:00
11:35 AM,60.8,51.8,72,29.81,10.0,NW,19.6,25.3,N/A,,Mostly Cloudy,310,2012-10-14 16:35:00
11:55 AM,60.8,51.8,72,29.82,10.0,WNW,18.4,27.6,N/A,,Scattered Clouds,300,2012-10-14 16:55:00
12:15 PM,62.6,51.8,68,29.83,10.0,WNW,18.4,27.6,N/A,,Clear,300,2012-10-14 17:15:00
12:35 PM,64.4,50.0,59,29.85,10.0,WNW,18.4,28.8,N/A,,Clear,300,2012-10-14 17:35:00
12:55 PM,64.4,50.0,59,29.87,10.0,WNW,17.3,25.3,N/A,,Clear,290,2012-10-14 17:55:00
1:15 PM,64.4,46.4,52,29.88,10.0,NW,17.3,29.9,N/A,,Clear,310,2012-10-14 18:15:00
1:35 PM,64.4,46.4,52,29.88,10.0,WNW,17.3,24.2,N/A,,Clear,290,2012-10-14 18:35:00
1:55 PM,64.4,42.8,45,29.87,10.0,NW,17.3,24.2,N/A,,Clear,310,2012-10-14 18:55:00
2:15 PM,64.4,42.8,45,29.88,10.0,NW,16.1,28.8,N/A,,Clear,310,2012-10-14 19:15:00
2:35 PM,66.2,44.6,46,29.89,10.0,WNW,15.0,24.2,N/A,,Clear,300,2012-10-14 19:35:00
2:55 PM,66.2,42.8,43,29.90,10.0,West,20.7,27.6,N/A,,Clear,280,2012-10-14 19:55:00
3:15 PM,64.4,42.8,45,29.91,10.0,WNW,19.6,25.3,N/A,,Clear,300,2012-10-14 20:15:00
3:35 PM,66.2,41.0,40,29.91,10.0,NW,16.1,25.3,N/A,,Clear,310,2012-10-14 20:35:00
3:55 PM,66.2,42.8,43,29.91,10.0,NW,13.8,23.0,N/A,,Clear,310,2012-10-14 20:55:00
4:15 PM,66.2,41.0,40,29.92,10.0,NW,16.1,25.3,N/A,,Clear,310,2012-10-14 21:15:00
4:35 PM,66.2,41.0,40,29.93,10.0,WNW,15.0,20.7,N/A,,Clear,300,2012-10-14 21:35:00
4:55 PM,66.2,41.0,40,29.93,10.0,WNW,19.6,26.5,N/A,,Clear,290,2012-10-14 21:55:00
5:15 PM,66.2,41.0,40,29.94,10.0,WNW,12.7,21.9,N/A,,Clear,300,2012-10-14 22:15:00
5:35 PM,66.2,41.0,40,29.94,10.0,WNW,9.2,19.6,N/A,,Clear,290,2012-10-14 22:35:00
5:55 PM,64.4,41.0,42,29.95,10.0,WNW,11.5,-,N/A,,Clear,300,2012-10-14 22:55:00
6:15 PM,64.4,41.0,42,29.95,10.0,WNW,11.5,-,N/A,,Clear,290,2012-10-14 23:15:00
6:35 PM,64.4,41.0,42,29.95,10.0,West,8.1,-,N/A,,Clear,280,2012-10-14 23:35:00
6:55 PM,62.6,41.0,45,29.95,10.0,WNW,8.1,-,N/A,,Clear,290,2012-10-14 23:55:00
7:15 PM,62.6,41.0,45,29.95,10.0,WNW,8.1,-,N/A,,Clear,290,2012-10-15 00:15:00
7:35 PM,60.8,41.0,48,29.96,10.0,West,3.5,-,N/A,,Clear,280,2012-10-15 00:35:00
7:55 PM,59.0,42.8,55,29.97,10.0,West,4.6,-,N/A,,Clear,270,2012-10-15 00:55:00
8:15 PM,59.0,42.8,55,29.97,10.0,Calm,Calm,-,N/A,,Clear,0,2012-10-15 01:15:00
8:35 PM,55.4,42.8,63,29.98,10.0,Calm,Calm,-,N/A,,Clear,0,2012-10-15 01:35:00
8:55 PM,53.6,42.8,67,29.99,10.0,Calm,Calm,-,N/A,,Clear,0,2012-10-15 01:55:00
9:15 PM,51.8,44.6,76,29.99,10.0,Calm,Calm,-,N/A,,Clear,0,2012-10-15 02:15:00
9:35 PM,50.0,44.6,82,29.98,10.0,Calm,Calm,-,N/A,,Clear,0,2012-10-15 02:35:00
9:55 PM,50.0,44.6,82,29.98,10.0,Calm,Calm,-,N/A,,Clear,0,2012-10-15 02:55:00
10:15 PM,48.2,44.6,87,29.99,10.0,Calm,Calm,-,N/A,,Clear,0,2012-10-15 03:15:00
10:35 PM,48.2,44.6,87,29.99,10.0,Calm,Calm,-,N/A,,Clear,0,2012-10-15 03:35:00
10:55 PM,46.4,44.6,93,29.99,10.0,Calm,Calm,-,N/A,,Clear,0,2012-10-15 03:55:00
11:15 PM,46.4,42.8,87,29.99,10.0,Calm,Calm,-,N/A,,Clear,0,2012-10-15 04:15:00
11:35 PM,44.6,42.8,93,29.99,10.0,Calm,Calm,-,N/A,,Clear,0,2012-10-15 04:35:00
11:55 PM,44.6,42.8,93,29.99,10.0,Calm,Calm,-,N/A,,Clear,0,2012-10-15 04:55:00